Flag for Spain Weather past 2 weeks in Alicante, Spain

Now
77 °F

Passing clouds.


Feels Like: 78 °F
Forecast: 73 / 88 °F
Wind: 1 mph from North

Location: Alicante / El Altet

Current Time: Sep 1, 2015 at 1:49:29 AM

Latest Report: Sep 1, 2015 at 1:30 AM


Visibility: N/A

Pressure: 29.98 "Hg

Humidity: 94%

Dew point: 75 °F

Location of AlicanteLocation

Historic Weather in Alicante — Graph

°F

Alicante temperature yesterday

Maximum temperature yesterday: 88 °F (at 12:00 PM)
Minimum temperature yesterday: 77 °F (at 5:00 AM)
Average temperature yesterday: 82 °F

Past Weeks' High & Low Weather Summary

 TemperatureHumidityPressure
High93 °F (Aug 23, 2:00 PM)94% (Aug 31, 11:30 PM)30.18 "Hg (Aug 31, 11:30 PM)
Low70 °F (Aug 27, 7:30 AM)23% (Aug 24, 2:00 PM)29.74 "Hg (Aug 23, 6:30 PM)
Average81 °F65%29.99 "Hg
* Reported Aug 17 1:00 AM — Sep 1 1:00 AM, Alicante, Weather by CustomWeather, © 2015

Note: Actual official high and low records may vary slightly from our data, if they occured in-between our weather recording intervals... More about our weather records

Advertising

Alicante weather history for previous 24 hours

 ConditionsComfort  
Time TempWeatherWind HumidityBarometerVisibility
1:00 AM
Tue, Sep 1
77 °FPassing clouds.1 mph94%29.98 "HgN/A
11:30 PM
Mon, Aug 31
77 °FPassing clouds.6 mph94%29.98 "HgN/A
11:00 PM79 °FPassing clouds.3 mph89%29.98 "HgN/A
10:30 PM79 °FPassing clouds.1 mph89%29.95 "HgN/A
10:00 PM79 °FPassing clouds.7 mph89%29.92 "HgN/A
9:30 PM79 °FThunderstorms. Passing clouds.6 mph89%29.92 "HgN/A
8:30 PM81 °FScattered clouds.7 mph84%29.89 "HgN/A
8:00 PM79 °FScattered clouds.8 mph89%29.92 "HgN/A
7:30 PM79 °FScattered clouds.9 mph89%29.95 "HgN/A
7:00 PM81 °FPassing clouds.5 mph79%29.95 "HgN/A
6:30 PM82 °FRain. Passing clouds.3 mph74%29.95 "Hg5 mi
6:00 PM82 °FPassing clouds.5 mph74%29.92 "HgN/A
5:30 PM84 °FPassing clouds.6 mph70%29.92 "HgN/A
5:00 PM84 °FPassing clouds.9 mph70%29.92 "HgN/A
4:30 PM86 °FPassing clouds.8 mph62%29.92 "HgN/A
4:00 PM86 °FPassing clouds.8 mph66%29.95 "HgN/A
3:30 PM84 °FPassing clouds.8 mph70%29.98 "HgN/A
3:00 PM86 °FPassing clouds.9 mph62%29.98 "HgN/A
2:30 PM86 °FPassing clouds.9 mph62%29.98 "HgN/A
2:00 PM86 °FPassing clouds.9 mph62%29.98 "HgN/A
1:30 PM86 °FPassing clouds.9 mph59%30.01 "HgN/A
1:00 PM86 °FPassing clouds.12 mph62%30.01 "HgN/A
12:30 PM88 °FPassing clouds.8 mph55%30.01 "HgN/A
12:00 PM88 °FPassing clouds.5 mph55%30.01 "HgN/A
11:30 AM86 °FPassing clouds.2 mph59%30.01 "HgN/A
11:00 AM86 °FPassing clouds.3 mph59%29.98 "HgN/A
10:30 AM84 °FSunny.2 mph62%29.98 "Hg10 mi
10:00 AM84 °FSunny.No wind66%30.01 "Hg10 mi
9:30 AM82 °FSunny.No wind70%30.01 "Hg10 mi
9:00 AM81 °FPassing clouds.2 mph74%30.01 "HgN/A
8:30 AM81 °FMore clouds than sun.2 mph74%30.01 "HgN/A
8:00 AM81 °FMostly cloudy.No wind74%30.01 "HgN/A
7:30 AM79 °FPassing clouds.No wind84%30.01 "HgN/A
7:00 AM79 °FPassing clouds.No wind84%30.01 "HgN/A
6:30 AM79 °FPassing clouds.2 mph84%30.01 "HgN/A
6:00 AM79 °FPassing clouds.2 mph84%29.98 "HgN/A
5:30 AM77 °FPassing clouds.2 mph83%30.01 "HgN/A
5:00 AM77 °FPassing clouds.2 mph89%30.01 "HgN/A
4:30 AM79 °FPassing clouds.No wind84%30.01 "HgN/A
4:00 AM81 °FPassing clouds.3 mph79%30.01 "HgN/A
3:30 AM81 °FPassing clouds.6 mph79%30.01 "HgN/A
3:00 AM81 °FPassing clouds.2 mph79%30.01 "HgN/A
2:30 AM81 °FPassing clouds.5 mph79%30.04 "HgN/A
2:00 AM81 °FPassing clouds.6 mph84%30.04 "HgN/A
1:30 AM81 °FPassing clouds.3 mph84%30.04 "HgN/A
1:00 AM81 °FPassing clouds.5 mph84%30.04 "HgN/A
Weather by CustomWeather, © 2015

See weather overviewHow to use our weather pages